[[{"header":{"parameterUnit":"m.s-1","parameterCategory":1,"la1":30.2991,"la2":30.254,"lo1":-89.0895,"lo2":-89.0444,"dy":0.0017,"dx":0.0017,"nx":28,"ny":28,"refTime":"2023-11-01T03:00:00:Z","depth":0,"parameterNumber":2,"parameterNumberName":"U-component_of_WINDS"},"data":[0,0,0,0,0,0,0,0,0,0,0,0,0,0,0,0,0,0,0,0,0,0,0,0,0,0,0,0,0,0,0,0,0,0,0,0,0,0,0,0,0,0,0,0,0,0,0,0,0,0,0,0,0,0,0,0,0,0,-5.0853,-5.0854,0,-5.0955,-5.0956,-5.0957,-5.0765,-5.0759,-5.0752,-5.0746,-5.0855,-5.0863,-5.0872,0,0,0,0,0,0,0,0,0,0,0,0,0,-5.0493,-5.05,-5.0853,-5.0854,-5.0855,-5.0955,-5.0956,-5.0958,-5.0766,-5.0758,-5.075,-5.0743,-5.0852,-5.0862,-5.0873,0,0,0,0,0,0,0,0,0,0,0,0,0,-5.0628,-5.0503,-5.0853,-5.0772,-5.0765,-5.0955,-5.0956,-5.0958,-5.0768,-5.0758,-5.0748,-5.0739,-5.0848,-5.0861,-5.0874,-5.1148,0,0,-5.0915,-5.0921,0,0,0,0,0,0,0,0,-5.062,-5.0641,-5.0782,-5.0777,-5.0771,-5.0837,-5.0869,-5.1022,-5.077,-5.0767,-5.0746,-5.0735,-5.0857,-5.0869,-5.0909,-5.1154,-5.1158,-5.0916,-5.0924,-5.093,-5.0934,0,0,0,0,0,0,0,-5.0611,-5.0636,-5.0893,-5.0784,-5.0778,-5.073,-5.0739,-5.0897,-5.0865,-5.0766,-5.0753,-5.0767,-5.0852,-5.0897,-5.091,-5.116,-5.0916,-5.0928,-5.0936,-5.0941,-5.1632,-5.1642,0,0,0,0,0,0,-5.0612,-5.0629,-5.089,-5.0896,-5.067,-5.0745,-5.0754,-5.0826,-5.0862,-5.0859,-5.0775,-5.0758,-5.0879,-5.0895,-5.0914,-5.1236,-5.093,-5.0942,-5.095,-5.1621,-5.1634,-5.1645,0,0,0,0,0,0,-5.0605,-5.0637,-5.0886,-5.0759,-5.0787,-5.0761,-5.0843,-5.0833,-5.0877,-5.0869,-5.0862,-5.0827,-5.0872,-5.0895,-5.1091,-5.1237,-5.0948,-5.096,-5.1609,-5.1625,-5.164,-5.1884,0,0,0,0,0,0,-5.0595,-5.0635,-5.0739,-5.0763,-5.0795,-5.1062,-5.0852,-5.0842,-5.09,-5.0879,-5.0916,-5.0913,-5.0866,-5.1072,-5.1104,-5.125,-5.0971,-5.1596,-5.1616,-5.1635,-5.1862,-5.1906,-5.1943,0,0,0,0,0,-5.0583,-5.0805,-5.0746,-5.0778,-5.0924,-5.1071,-5.1089,-5.103,-5.0913,-5.1017,-5.1011,-5.0912,-5.1215,-5.1094,-5.1128,-5.128,-5.1586,-5.1611,-5.1633,-5.1844,-5.1897,-5.1942,0,0,0,0,0,0,-5.0802,-5.0807,-5.0741,-5.0977,-5.1025,-5.1038,-5.1168,-5.1088,-5.117,-5.1147,-5.107,-5.108,-5.1292,-5.1305,-5.1169,-5.1546,-5.1381,-5.1413,-5.153,-5.158,-5.1619,-5.1613,-5.0982,0,0,0,0,0,-5.0877,-5.0995,-5.0993,-5.1202,-5.1229,-5.1195,-5.1257,-5.1206,-5.1253,-5.1273,-5.1281,-5.1331,-5.1437,-5.1509,-5.1606,-5.1862,-5.1868,-5.1984,-5.2024,-5.2057,-5.2086,-5.2221,-5.2272,-5.1722,-5.1722,-5.1721,0,0,-5.1035,-5.1052,-5.1132,-5.1247,-5.1277,-5.1402,-5.1213,-5.1353,-5.1445,-5.1294,-5.1479,-5.1487,-5.1538,-5.1765,-5.1865,-5.1782,-5.2238,-5.2087,-5.2113,-5.2124,-5.225,-5.2302,-5.2349,-5.1738,-5.1735,-5.1732,0,0,-5.1386,-5.1411,-5.1587,-5.1621,-5.1669,-5.1644,-5.1687,-5.1711,-5.171,-5.1894,-5.1783,-5.1891,-5.2076,-5.2116,-5.2161,-5.2524,-5.2435,-5.2558,-5.2768,-5.2901,-5.2944,-5.2982,-5.3111,-5.3159,-5.2586,-5.2586,-5.2587,0,-5.1577,-5.1759,-5.1688,-5.1835,-5.1888,-5.1755,-5.1933,-5.1969,-5.2048,-5.2088,-5.1994,-5.2221,-5.2246,-5.248,-5.2568,-5.2609,-5.2655,-5.2554,-5.2943,-5.2981,-5.3015,-5.3138,-5.3187,-5.2601,-5.2599,-5.2598,-5.2596,0,-5.199,-5.2118,-5.2254,-5.2331,-5.24,-5.2562,-5.2515,-5.2593,-5.2536,-5.2522,-5.271,-5.2734,-5.2834,-5.2885,-5.2832,-5.3111,-5.3058,-5.2955,-5.2788,-5.3083,-5.3197,-5.3244,-5.2622,-5.2617,-5.2612,-5.2609,0,0,-5.2485,-5.2518,-5.2569,-5.2602,-5.2644,-5.2742,-5.2897,-5.2992,-5.306,-5.3118,-5.3246,-5.3404,-5.3308,-5.3359,-5.3308,-5.3425,-5.371,-5.3307,-5.3307,-5.3381,-5.4019,-5.4098,-5.4153,-5.3651,-5.3659,-5.3666,-5.4015,0,-5.2833,-5.3099,-5.3038,-5.3301,-5.3418,-5.3291,-5.3426,-5.3467,-5.3457,-5.3554,-5.3542,-5.3656,-5.352,-5.355,-5.3659,-5.3653,-5.3838,-5.3626,-5.377,-5.3776,-5.3763,-5.4213,-5.4296,-5.4624,-5.4059,-5.4067,-5.4072,0,-5.3276,-5.3348,-5.3622,-5.3643,-5.3689,-5.3812,-5.3893,-5.3988,-5.4031,-5.4015,-5.4071,-5.3997,-5.415,-5.398,-5.4191,-5.4048,-5.4103,-5.4109,-5.412,-5.4132,-5.3943,-5.4238,-5.4727,-5.4777,-5.4142,-5.4136,-5.4131,0,-5.3609,-5.3775,-5.396,-5.3991,-5.4021,-5.4109,-5.4126,-5.4159,-5.4219,-5.429,-5.4329,-5.4418,-5.4467,-5.4538,-5.449,-5.437,-5.4708,-5.4534,-5.47,-5.4702,-5.4778,-5.4775,-5.5285,-5.4813,-5.4812,-5.4811,-5.481,0,-5.4005,-5.4178,-5.4109,-5.4224,-5.4413,-5.4341,-5.453,-5.4532,-5.4562,-5.4674,-5.457,-5.4678,-5.4608,-5.471,-5.4673,-5.4853,-5.4876,-5.4867,-5.4856,-5.4878,-5.4879,-5.4913,-5.489,-5.4824,-5.4821,-5.4819,-5.4817,0,-5.441,-5.4372,-5.4565,-5.4575,-5.4582,-5.4721,-5.473,-5.4836,-5.4816,-5.4959,-5.4989,-5.4959,-5.5073,-5.5032,-5.5155,-5.5129,-5.5359,-5.5317,-5.5344,-5.5334,-5.5502,-5.5487,-5.6053,-5.6124,-5.5606,-5.5611,-5.5615,0,-5.4666,-5.4796,-5.4819,-5.4886,-5.4909,-5.5018,-5.5078,-5.5012,-5.5079,-5.5136,-5.5236,-5.534,-5.542,-5.5609,-5.5599,-5.5692,-5.5652,-5.5844,-5.5665,-5.5682,-5.5655,-5.5648,-5.5661,-5.588,-5.5886,-5.5891,-5.5895,0,-5.5124,-5.5098,-5.5188,-5.5272,-5.5346,-5.5409,-5.5463,-5.5524,-5.546,-5.5541,-5.5655,-5.5718,-5.5841,-5.5946,-5.6029,-5.6046,-5.5962,-5.5951,-5.5994,-5.6018,-5.6028,-5.6025,-5.5442,-5.5939,-5.5934,-5.5931,-5.5929,-5.5927,-5.5463,-5.5571,-5.5604,-5.5707,-5.574,-5.5792,-5.5892,-5.5883,-5.5977,-5.6071,-5.6026,-5.6159,-5.6197,-5.6298,-5.6327,-5.643,-5.6356,-5.6419,-5.6435,-5.6451,-5.6473,-5.6011,-5.6445,-5.6444,-5.6442,-5.6441,-5.644,0,-5.5915,-5.5929,-5.6025,-5.6102,-5.6184,-5.6093,-5.6148,-5.6222,-5.634,-5.6381,-5.6461,-5.6592,-5.6693,-5.669,-5.6783,-5.6866,-5.683,-5.6893,-5.6887,-5.6892,-5.6534,-5.6488,-5.6921,-5.6921,-5.6921,-5.6921,-5.6921,-5.6921,-5.616,-5.6338,-5.6316,-5.6509,-5.6521,-5.6649,-5.6688,-5.6735,-5.6768,-5.6918,-5.7001,-5.6997,-5.702,-5.7114,-5.7203,-5.7199,-5.7238,-5.7317,-5.7299,-5.6965,-5.6918,-5.6872,-5.6828,-5.7326,-5.7327,-5.7648,-5.7651,-5.7654]},{"header":{"parameterUnit":"m.s-1","parameterCategory":1,"la1":30.2991,"la2":30.254,"lo1":-89.0895,"lo2":-89.0444,"dy":0.0017,"dx":0.0017,"nx":28,"ny":28,"refTime":"2023-11-01T03:00:00:Z","depth":0,"parameterNumber":3,"parameterNumberName":"V-component_of_WINDS"},"data":[0,0,0,0,0,0,0,0,0,0,0,0,0,0,0,0,0,0,0,0,0,0,0,0,0,0,0,0,0,0,0,0,0,0,0,0,0,0,0,0,0,0,0,0,0,0,0,0,0,0,0,0,0,0,0,0,0,0,-4.0922,-4.0922,0,-4.0951,-4.0951,-4.0952,-4.0918,-4.0917,-4.0916,-4.0915,-4.0943,-4.0945,-4.0946,0,0,0,0,0,0,0,0,0,0,0,0,0,-4.0832,-4.0834,-4.0921,-4.0922,-4.0922,-4.0951,-4.0951,-4.0952,-4.0919,-4.0917,-4.0916,-4.0914,-4.0942,-4.0944,-4.0947,0,0,0,0,0,0,0,0,0,0,0,0,0,-4.0867,-4.0835,-4.0921,-4.0909,-4.0908,-4.0951,-4.0951,-4.0952,-4.0919,-4.0917,-4.0915,-4.0913,-4.0941,-4.0944,-4.0947,-4.1002,0,0,-4.0956,-4.0957,0,0,0,0,0,0,0,0,-4.0865,-4.0871,-4.0911,-4.091,-4.0909,-4.0929,-4.093,-4.0969,-4.0919,-4.0915,-4.0915,-4.0912,-4.094,-4.0942,-4.0952,-4.1003,-4.1005,-4.0956,-4.0958,-4.0959,-4.096,0,0,0,0,0,0,0,-4.0863,-4.0869,-4.0933,-4.0911,-4.091,-4.0901,-4.0904,-4.0937,-4.0937,-4.0915,-4.0913,-4.0917,-4.0939,-4.0949,-4.0952,-4.1005,-4.0956,-4.0958,-4.096,-4.0961,-4.1099,-4.11,0,0,0,0,0,0,-4.0862,-4.0867,-4.0932,-4.0934,-4.0882,-4.0904,-4.0907,-4.0925,-4.0937,-4.0937,-4.0918,-4.0915,-4.0945,-4.0949,-4.0953,-4.1015,-4.0959,-4.0961,-4.0963,-4.1097,-4.1099,-4.1101,0,0,0,0,0,0,-4.0861,-4.0869,-4.0931,-4.09,-4.0907,-4.0908,-4.0927,-4.0926,-4.0937,-4.0939,-4.0939,-4.0929,-4.0944,-4.0949,-4.0989,-4.1016,-4.0963,-4.0965,-4.1094,-4.1097,-4.11,-4.1142,0,0,0,0,0,0,-4.0858,-4.0868,-4.089,-4.0901,-4.0909,-4.0968,-4.0929,-4.0928,-4.0942,-4.0938,-4.0949,-4.095,-4.0943,-4.0985,-4.0992,-4.1019,-4.0968,-4.1092,-4.1096,-4.1099,-4.1138,-4.1146,-4.1153,0,0,0,0,0,-4.0855,-4.0902,-4.0892,-4.09,-4.0937,-4.097,-4.0974,-4.0966,-4.0944,-4.0965,-4.0967,-4.0949,-4.1012,-4.099,-4.0997,-4.1025,-4.109,-4.1095,-4.1099,-4.1135,-4.1144,-4.1152,0,0,0,0,0,0,-4.0894,-4.0903,-4.0892,-4.0943,-4.0956,-4.0964,-4.0991,-4.0977,-4.0996,-4.0991,-4.098,-4.0983,-4.1025,-4.1029,-4.1004,-4.1077,-4.1047,-4.1053,-4.1072,-4.1081,-4.1088,-4.1085,-4.097,0,0,0,0,0,-4.0909,-4.0936,-4.0942,-4.0986,-4.0993,-4.0991,-4.1005,-4.0997,-4.101,-4.1015,-4.1019,-4.1031,-4.1053,-4.1068,-4.1089,-4.1139,-4.1139,-4.1162,-4.1169,-4.1175,-4.118,-4.1203,-4.1212,-4.1115,-4.1115,-4.1115,0,0,-4.0939,-4.0947,-4.0965,-4.0994,-4.1003,-4.1029,-4.0996,-4.1026,-4.1044,-4.1019,-4.1056,-4.106,-4.1072,-4.1117,-4.1137,-4.1122,-4.1207,-4.1181,-4.1185,-4.1187,-4.1208,-4.1218,-4.1226,-4.1118,-4.1118,-4.1117,0,0,-4.1007,-4.1018,-4.1054,-4.1063,-4.1077,-4.1074,-4.1083,-4.1093,-4.1094,-4.1131,-4.1112,-4.1134,-4.1173,-4.1181,-4.1191,-4.1259,-4.1242,-4.1266,-4.1303,-4.1326,-4.1334,-4.134,-4.1361,-4.1369,-4.1271,-4.1271,-4.1272,0,-4.1043,-4.1083,-4.1074,-4.1104,-4.1116,-4.1095,-4.113,-4.1139,-4.1159,-4.1167,-4.115,-4.1197,-4.1204,-4.1248,-4.1264,-4.1274,-4.1281,-4.1264,-4.1333,-4.134,-4.1346,-4.1366,-4.1374,-4.1274,-4.1274,-4.1273,-4.1273,0,-4.1124,-4.1151,-4.1179,-4.1197,-4.1213,-4.1245,-4.124,-4.1256,-4.1247,-4.1246,-4.1282,-4.129,-4.131,-4.1321,-4.1313,-4.1363,-4.1353,-4.1336,-4.1305,-4.1358,-4.1376,-4.1384,-4.1278,-4.1277,-4.1276,-4.1275,0,0,-4.1218,-4.1229,-4.1239,-4.1246,-4.1258,-4.1278,-4.1309,-4.1329,-4.1341,-4.1355,-4.1378,-4.1411,-4.1394,-4.1405,-4.1397,-4.1418,-4.1467,-4.1397,-4.1397,-4.1407,-4.1519,-4.153,-4.1539,-4.1457,-4.1458,-4.1459,-4.1517,0,-4.1283,-4.1336,-4.1328,-4.1378,-4.1401,-4.138,-4.1406,-4.1415,-4.1415,-4.1433,-4.1433,-4.1454,-4.1432,-4.1438,-4.1457,-4.1457,-4.1488,-4.1453,-4.1476,-4.1477,-4.1471,-4.1549,-4.1562,-4.1616,-4.1524,-4.1525,-4.1526,0,-4.1367,-4.1382,-4.1434,-4.144,-4.1449,-4.1473,-4.1488,-4.1507,-4.1516,-4.1514,-4.1525,-4.1513,-4.1541,-4.1512,-4.1549,-4.1525,-4.1534,-4.1535,-4.1536,-4.1536,-4.1503,-4.1548,-4.1633,-4.164,-4.1538,-4.1537,-4.1536,0,-4.1425,-4.146,-4.1494,-4.1501,-4.1509,-4.1525,-4.1529,-4.1537,-4.1548,-4.1562,-4.1568,-4.1585,-4.1594,-4.1607,-4.1599,-4.1579,-4.1636,-4.1607,-4.1633,-4.1633,-4.1644,-4.1643,-4.1728,-4.1655,-4.1655,-4.1654,-4.1654,0,-4.1497,-4.1529,-4.152,-4.1541,-4.1575,-4.1565,-4.1599,-4.16,-4.1606,-4.1626,-4.161,-4.1628,-4.1618,-4.1635,-4.1629,-4.1659,-4.1664,-4.1661,-4.1659,-4.1661,-4.1661,-4.1665,-4.166,-4.1657,-4.1656,-4.1656,-4.1655,0,-4.1568,-4.1563,-4.1599,-4.1603,-4.1605,-4.1629,-4.1632,-4.1651,-4.1648,-4.1673,-4.1678,-4.1675,-4.1694,-4.1688,-4.1709,-4.1705,-4.1741,-4.1735,-4.1738,-4.1735,-4.176,-4.1757,-4.1849,-4.1859,-4.1782,-4.1783,-4.1783,0,-4.1613,-4.1637,-4.1642,-4.1654,-4.1659,-4.1679,-4.1689,-4.168,-4.1691,-4.1702,-4.1719,-4.1737,-4.175,-4.1781,-4.178,-4.1795,-4.1788,-4.1819,-4.179,-4.179,-4.1784,-4.1782,-4.1783,-4.1824,-4.1825,-4.1826,-4.1826,0,-4.1692,-4.1688,-4.1704,-4.1719,-4.1732,-4.1743,-4.1753,-4.1764,-4.1754,-4.1768,-4.1787,-4.1797,-4.1818,-4.1835,-4.1848,-4.1851,-4.1836,-4.1836,-4.1842,-4.1843,-4.1842,-4.184,-4.175,-4.1833,-4.1832,-4.1832,-4.1831,-4.1831,-4.1749,-4.1767,-4.1773,-4.1791,-4.1797,-4.1806,-4.1823,-4.1822,-4.1837,-4.1853,-4.1846,-4.1867,-4.1873,-4.189,-4.1894,-4.191,-4.1898,-4.1908,-4.1909,-4.1911,-4.1913,-4.1842,-4.1913,-4.1913,-4.1912,-4.1912,-4.1912,0,-4.1824,-4.1826,-4.1843,-4.1856,-4.1869,-4.1855,-4.1864,-4.1876,-4.1895,-4.1902,-4.1915,-4.1935,-4.1951,-4.195,-4.1964,-4.1976,-4.197,-4.198,-4.1978,-4.1978,-4.1925,-4.1916,-4.1985,-4.1985,-4.1985,-4.1985,-4.1985,-4.1985,-4.1864,-4.1894,-4.189,-4.1921,-4.1923,-4.1943,-4.1949,-4.1957,-4.1962,-4.1985,-4.1998,-4.1997,-4.2,-4.2014,-4.2027,-4.2026,-4.2031,-4.2043,-4.2039,-4.1989,-4.1982,-4.1975,-4.1967,-4.2045,-4.2045,-4.2091,-4.2091,-4.2091]}]]